{"data":{"norad_id":65771,"epoch":"2026-05-25T03:51:35.489952Z","epoch_age_seconds":64308,"freshness":"FRESH","line1":"1 65771U 25217K   26145.16082743  .00001861  00000+0  27298-3 0  9998","line2":"2 65771  51.9009  64.9549 0001108  80.5507 279.5581 14.79938990 36201","mean_motion":14.7993899,"eccentricity":0.0001108,"inclination_deg":51.9009,"raan_deg":64.9549,"arg_perigee_deg":80.5507,"mean_anomaly_deg":279.5581,"bstar":0.00027298,"rev_number":3620,"period_min":97.301308346502,"perigee_km":628.74027226089,"apogee_km":630.29316832531,"semimajor_km":7007.6537202931,"source":"CELESTRAK","updated_at":"2026-05-25T13:38:05.661089Z"}}